Regional Weather Roundup
Issued by NWS

Home | Current Version | Previous Version | Graphics & Text | Print | Product List | Glossary On
Versions: 1 2 3 4 5 6 7 8 9 10 11 12 13 14 15 16 17 18 19 20 21 22 23 24 25 26 27 28 29 30 31 32 33 34 35 36 37 38 39 40 41 42 43 44 45 46 47 48 49 50
000
ASUS43 KDMX 282207
RWRIA

WEATHER ROUNDUP FOR IOWA
NATIONAL WEATHER SERVICE DES MOINES IA
500 PM CDT MON JUL 28 2014

NOTE: "FAIR" INDICATES FEW OR NO CLOUDS BELOW 12,000 FEET WITH NO
SIGNIFICANT WEATHER AND/OR OBSTRUCTIONS TO VISIBILITY.

* - THESE STATIONS ARE NOT NWS STATIONS...THUS NOT UNDER NWS
QUALITY CONTROL.  THEY ALSO DO NOT REPORT WEATHER SUCH
AS PRECIPITATION OR FOG.

IAZ001>003-012>014-020>022-031>034-043>046-282300-
   NORTHWEST IOWA

CITY           SKY/WX    TMP DP  RH WIND       PRES   REMARKS
CARROLL *      MOSUNNY   75  59  57 N7G14     30.19F
CHEROKEE *     MOSUNNY   75  59  57 N7        30.20F
DENISON *      PTSUNNY   72  59  64 W5G13     30.19F
LE MARS *      SUNNY     73  57  56 VRB6G14   30.22F
ORANGE CITY *  MOSUNNY   75  54  46 N8        30.22F
SHELDON *      MOSUNNY   73  57  56 N8        30.21F
SIOUX CITY     PTSUNNY   80  57  45 N9        30.21F HX  80
SPENCER        PTSUNNY   73  56  54 N6        30.21F
STORM LAKE *   PTSUNNY   70  61  73 N7        30.22F
$$

IAZ055>058-069>071-079>083-090>094-282300-
   SOUTHWEST IOWA

CITY           SKY/WX    TMP DP  RH WIND       PRES   REMARKS
ATLANTIC *     MOSUNNY   75  59  57 NW10      30.19F
AUDUBON *      MOSUNNY   79  63  57 NW8       30.21F HX  80
CLARINDA *     PTSUNNY   75  59  57 NW7       30.20F
COUNCIL BLFS * MOSUNNY   75  59  57 N10       30.20F
CRESTON *      PTSUNNY   73  59  60 NW6       30.19F
HARLAN  *      SUNNY     75  59  57 NW12      30.23F
LAMONI         SUNNY     77  56  48 N8        30.18F
RED OAK *      MOSUNNY   77  59  53 NW10      30.20S
SHENANDOAH *   SUNNY     77  59  53 N8        30.21S
$$

IAZ047>049-059>061-072>074-084-282300-
   CENTRAL IOWA

CITY           SKY/WX    TMP DP  RH WIND       PRES   REMARKS
AMES           MOSUNNY   73  58  59 VRB3      30.18F
ANKENY *       PTSUNNY   73  57  56 W12       30.18F
CHARITON *     PTSUNNY   73  57  56 NW7       30.18F
DES MOINES     PTSUNNY   73  57  57 N5        30.18S
GRINNELL*      CLOUDY    72  57  60 W8        30.18F
KNOXVILLE *    PTSUNNY   72  55  56 N5        30.17F
MARSHALLTOWN   CLOUDY    72  57  59 NW9       30.17F
PELLA *        MOSUNNY   75  57  53 NW6       30.19F
PERRY *        CLOUDY    66  63  88 CALM      30.20F
$$

IAZ004>006-015-016-023>025-035-036-282300-
   NORTH CENTRAL IOWA

CITY           SKY/WX    TMP DP  RH WIND       PRES   REMARKS
ALGONA *       MOSUNNY   73  54  49 N7        30.20F
CLARION *      PTSUNNY   72  57  60 NW6       30.19F
ESTHERVILLE    MOSUNNY   71  55  56 NE12      30.21S
FORT DODGE *   CLOUDY    73  57  56 N6        30.20F
MASON CITY     CLOUDY    72  54  53 N12       30.19F
FOREST CITY *  MOSUNNY   72  52  49 NE13      30.19S
IOWA FALLS *   PTSUNNY   73  54  49 NW9       30.19F
$$

IAZ007>011-017>019-026>030-037>042-050>054-066-282300-
   NORTHEAST IOWA

CITY           SKY/WX    TMP DP  RH WIND       PRES   REMARKS
CEDAR RAPIDS   CLOUDY    72  51  47 N6        30.15S
CHARLES CITY * PTSUNNY   72  54  53 VRB5      30.18S
CLINTON *      CLOUDY    70  52  52 N9G16     30.17S
DECORAH *      MOSUNNY   72  52  49 NW9       30.15S
DUBUQUE        CLOUDY    70  53  54 NW9       30.15F
MONTICELLO *   PTSUNNY   72  52  49 VRB7      30.15S
OELWEIN *      PTSUNNY   72  54  53 NW5G14    30.17S
WATERLOO       PTSUNNY   73  54  51 N8        30.15F
$$

IAZ064-065-067-068-078-282300-
   EAST CENTRAL IOWA

CITY           SKY/WX    TMP DP  RH WIND       PRES   REMARKS
DAVENPORT      CLOUDY    70  52  52 NW8       30.15S
IOWA CITY      PTSUNNY   73  52  47 NW5       30.16S
MT. PLEASANT * PTSUNNY   72  52  49 N6        30.15F
MUSCATINE *    MOSUNNY   75  50  41 N7        30.15S
QUAD CITIES    CLOUDY    72  49  44 N8        30.14S
$$

IAZ062-063-075>077-085>089-095>099-282300-
   SOUTHEAST IOWA

CITY           SKY/WX    TMP DP  RH WIND       PRES   REMARKS
BURLINGTON     MOSUNNY   74  53  48 N12       30.15S
FAIRFIELD *    PTSUNNY   72  57  60 NW12      30.17S
FORT MADISON * MOSUNNY   73  54  49 N8        30.16S
KEOKUK *       PTSUNNY   72  55  56 N8        30.14F
OSKALOOSA *    PTSUNNY   73  59  60 NW7       30.18F
CENTERVILLE *  SUNNY     73  55  53 NW6       30.19F
OTTUMWA        CLOUDY    71  56  58 NW10      30.17F
WASHINGTON *   CLOUDY    72  55  56 NW8       30.16S
$$

ABBREVIATIONS USED IN REMARKS
   TC - TEMPERATURES IN CELSIUS
  WCI - WIND CHILL INDEX
   HX - HEAT INDEX
  VSB - VISIBILITY
$$



USA.gov is the U.S. government's official web portal to all federal, state and local government web resources and services.